Location: Newark
(52.4787°S, 179.0532°W)
Time: 20:23:34
(UTC+00:00)

ISS - Pass Details

Date: 25 October 2019
Orbit: 412 x 421 km, 51.6° (Epoch: 18 November)

Event Time Altitude Azimuth Distance (km) Brightness Sun altitude
Rises 07:51:30 0° 285° (WNW) 2,372 0.7 -9.0°
Reaches altitude 10° 07:53:36 10° 287° (WNW) 1,511 -0.3 -9.3°
Maximum altitude 07:56:59 70° 9° (N) 456 -3.8 -9.7°
Drops below altitude 10° 08:00:23 10° 94° (E) 1,521 -1.4 -10.2°
Enters shadow 08:00:29 - 94° (E) 1,559 -1.3 -10.2°
